Wind_Speed
10 8 7 7 9 9 12 10 9 11 7 7 8 8 9 8 8 7 2 6 4 3 6 7 8 7 9 6 7 16 15 9 4 5 10 12 12 11 9 8 12 15 15 17 22 21 21 24 22 19 17 17 16 16 16 17 16 16 17 17 17 16 14 11 9 8 8 7 6 7 7 7 7 7 6 7 6 7 9 12 15 19 20 20 18 18
9 8 8 10 13 11 14 13 6 9 7 7 9 8 9 7 8 6 6 8 5 2 5 5 8 8 7 9 5 10 12 9 5 3 7 6 14 16 9 7 11 14 17 19 23 23 21 24 24 22 21 21 20 19 19 18 17 16 16 16 16 16 15 13 10 8 7 6 6 7 8 8 8 7 7 8 8 7 9 12 15 17 20 20 18 18
8 9 12 13 13 11 15 12 6 8 9 8 8 8 8 7 10 7 6 6 5 2 5 3 6 8 8 7 7 4 1 6 6 3 6 6 6 17 10 9 13 14 19 20 20 23 24 24 25 25 24 24 22 21 21 20 20 19 17 16 16 16 15 13 12 10 8 8 8 8 8 8 8 7 6 8 9 7 9 13 14 16 18 19 19 19
6 9 12 13 11 12 15 11 6 8 8 8 7 7 8 8 10 4 5 6 7 5 3 4 5 9 7 2 4 8 10 10 7 3 2 6 2 6 5 7 14 14 18 21 19 25 27 26 28 27 25 25 23 22 23 23 22 21 20 18 16 17 16 15 14 12 9 9 10 10 8 8 8 8 8 9 10 9 9 13 15 16 17 17 19 20
11 10 6 6 9 11 12 9 7 8 7 8 9 9 9 11 13 7 1 5 8 7 3 1 5 8 1 5 4 3 6 7 7 5 3 3 5 4 5 2 8 11 15 23 23 25 28 28 29 28 26 26 25 24 24 23 23 23 22 20 18 17 17 16 14 13 11 11 12 12 11 11 11 10 11 12 12 11 11 13 15 16 16 17 19 19
12 15 11 8 9 9 8 6 7 8 7 8 10 11 11 13 15 11 7 5 4 5 5 3 5 5 4 9 2 2 5 6 7 5 2 1 2 4 9 9 9 13 16 23 27 27 28 29 29 29 29 29 27 26 25 23 23 24 22 20 19 18 18 16 15 14 13 13 14 14 14 14 14 14 14 14 14 14 13 13 14 14 15 17 18 18
8 12 10 7 8 9 9 8 9 9 8 8 6 9 13 11 8 9 8 7 7 3 6 6 5 4 2 7 5 3 6 7 4 2 2 5 6 7 13 14 12 16 18 22 27 28 29 30 30 31 31 30 29 27 26 25 24 24 23 22 21 20 19 19 17 17 16 15 14 14 13 13 14 14 14 14 14 14 14 15 15 15 16 17 17 18
7 12 7 3 5 8 9 8 9 9 8 8 4 8 13 8 4 9 10 8 8 6 7 9 5 5 2 4 4 2 4 7 5 5 4 6 8 8 10 12 10 15 18 20 23 25 28 28 29 33 32 29 30 29 28 29 28 26 24 23 23 21 21 21 19 19 19 17 14 13 13 13 12 12 12 13 14 13 14 16 17 17 17 18 17 17
6 11 10 8 8 7 7 9 11 10 8 10 5 7 10 10 9 10 10 8 8 8 5 5 5 4 2 2 3 3 3 4 7 7 6 6 5 4 8 9 9 11 15 18 19 21 26 27 25 29 32 30 30 31 30 30 29 28 26 23 22 22 21 22 21 20 20 18 15 13 13 14 13 11 11 12 15 15 14 15 17 18 18 19 19 18
2 5 7 9 9 7 8 11 12 9 8 9 8 9 7 9 10 9 7 8 7 7 7 8 7 5 1 4 4 3 2 3 1 3 3 4 5 1 3 5 7 10 14 18 19 19 24 27 23 24 29 31 30 30 31 30 28 28 27 24 22 22 22 22 21 21 20 18 16 15 14 15 14 13 11 11 14 16 16 16 17 19 18 19 20 19
10 7 6 6 7 8 10 12 10 7 8 9 7 7 8 8 8 7 6 6 6 5 6 9 11 10 4 2 1 1 3 2 3 1 2 6 9 5 1 2 4 6 12 16 19 18 19 22 22 25 30 31 29 29 28 26 25 27 27 25 22 22 22 22 22 21 20 18 17 16 15 15 15 14 12 12 13 15 17 17 17 19 18 19 20 19
13 10 6 6 9 11 12 10 5 3 6 9 6 6 7 6 5 5 5 5 5 5 7 8 11 11 4 1 3 6 7 3 3 2 2 7 7 6 4 2 3 2 9 14 15 17 18 19 19 24 29 28 26 27 28 25 24 26 26 24 22 21 21 21 22 22 21 20 18 16 16 16 15 15 14 13 14 15 17 18 18 19 20 19 19 19
12 11 10 10 10 11 10 7 4 4 6 7 6 6 6 4 3 3 4 5 4 6 8 5 5 7 3 3 5 8 8 4 4 1 1 8 7 5 4 4 7 6 6 13 13 14 16 18 18 18 23 24 18 17 23 25 24 25 25 23 21 21 21 21 21 21 21 20 18 16 16 17 17 17 16 15 14 14 16 18 19 20 21 20 20 20
8 11 13 11 10 11 10 7 6 7 8 9 7 5 5 4 4 5 5 5 5 6 8 4 5 5 2 5 4 9 6 1 2 2 3 11 9 4 2 3 6 9 1 6 5 7 10 14 17 18 18 19 17 12 15 21 23 22 23 23 22 21 21 21 21 21 20 18 17 16 17 18 17 18 16 15 15 15 15 16 18 19 20 20 20 21
6 5 10 10 8 14 13 10 10 9 7 8 7 5 7 5 4 6 5 5 6 4 5 2 2 4 3 3 2 6 3 3 3 7 9 10 8 5 5 5 6 9 3 0 2 4 7 10 15 20 18 15 18 18 16 20 22 20 22 23 23 22 21 21 20 19 18 16 16 17 18 18 17 17 16 15 16 17 16 16 16 18 19 19 19 20
9 6 6 9 7 12 14 12 10 12 9 6 6 7 7 4 3 6 7 9 8 6 5 3 3 4 2 5 5 4 0 1 6 8 11 11 8 6 5 5 7 10 5 3 2 5 4 6 10 13 14 13 17 18 17 20 20 20 23 24 22 21 22 20 17 16 16 14 15 17 18 18 18 18 17 16 18 18 17 16 16 17 19 19 19 19
6 6 2 9 8 9 9 10 9 9 7 4 6 6 4 7 7 6 7 8 8 7 4 3 5 5 3 4 1 4 3 3 6 4 9 14 10 8 6 3 6 9 8 6 1 3 1 3 6 6 9 12 15 16 17 19 20 20 23 24 22 20 20 18 15 14 15 14 16 18 19 20 21 20 19 18 19 19 18 17 17 18 19 20 20 19
4 8 7 3 5 7 8 10 10 13 9 5 6 4 5 7 8 5 4 6 6 6 3 3 2 1 1 3 2 2 4 3 4 4 6 11 10 9 7 2 3 6 8 7 2 1 1 4 6 5 7 9 12 15 18 18 19 22 23 22 20 18 16 15 15 15 16 16 18 18 18 20 21 22 21 19 19 19 19 19 18 19 20 21 21 20
4 7 8 4 7 8 9 8 9 10 9 7 9 8 7 5 5 3 4 4 6 4 2 5 6 1 2 1 2 2 4 7 9 8 7 8 7 7 9 6 2 4 9 8 2 2 2 4 7 7 8 10 13 16 19 20 18 20 20 18 15 14 14 14 16 17 16 16 17 17 18 19 19 20 21 19 19 19 20 20 20 21 22 22 21 20
5 6 6 5 10 9 7 6 6 7 8 8 8 8 6 5 5 4 4 4 5 3 1 4 5 1 1 3 5 5 5 6 8 7 7 10 10 5 10 9 6 6 7 11 8 5 4 5 7 7 9 12 16 17 18 20 19 18 17 15 13 13 13 14 16 17 17 16 16 17 18 19 19 19 20 19 19 20 20 21 21 23 24 23 21 21
4 4 6 7 8 6 3 4 6 6 6 8 7 7 6 5 5 5 6 5 4 4 2 0 2 2 4 5 6 4 2 3 4 4 3 4 6 1 10 10 8 11 2 16 17 10 7 6 6 7 9 10 13 16 16 17 19 19 17 15 13 12 12 14 16 17 17 17 16 17 17 17 18 18 20 20 20 21 21 22 23 24 25 24 24 24
4 4 5 6 6 6 5 4 5 7 9 7 5 6 6 5 5 5 6 5 5 6 3 3 2 2 3 2 2 2 2 2 3 4 3 3 4 4 5 10 7 11 4 20 23 14 12 9 7 9 10 9 8 12 15 16 18 19 17 14 14 12 9 10 13 14 16 18 17 17 17 16 17 18 19 19 20 21 22 23 25 25 25 25 27 27
7 6 6 7 7 9 12 11 9 10 11 10 8 7 7 7 7 6 5 5 5 6 3 3 3 2 1 3 1 2 4 6 6 4 0 4 8 7 4 10 8 10 6 21 22 16 16 10 10 12 11 9 8 9 12 14 15 15 14 14 14 12 10 10 11 11 14 16 16 16 17 17 17 17 18 19 20 21 21 22 22 23 25 26 28 29
7 5 5 7 8 10 14 14 13 11 9 8 7 7 8 8 9 8 7 7 5 3 5 3 1 2 2 5 3 2 1 7 6 1 1 5 5 4 2 7 7 10 7 13 14 15 15 10 12 15 13 10 9 10 11 11 12 13 13 14 14 12 12 12 11 10 11 13 14 15 16 17 16 16 18 19 19 20 20 21 20 22 26 28 29 31
6 4 3 6 6 7 9 9 8 9 10 8 8 9 10 11 12 11 8 7 4 3 4 2 0 1 4 3 5 5 3 7 1 3 4 4 3 2 2 2 5 9 3 11 13 16 14 11 16 16 12 10 11 12 13 12 12 12 12 13 14 12 12 12 12 12 11 12 12 13 14 15 16 17 18 18 18 19 19 20 21 23 27 28 30 32
5 5 5 6 6 6 5 5 6 7 7 7 10 12 11 12 15 11 6 5 2 2 3 3 2 2 4 3 4 7 4 6 4 7 10 11 7 2 2 4 6 7 2 15 12 14 14 14 18 17 12 11 12 13 14 13 12 12 11 11 13 13 11 11 15 15 12 13 14 15 17 17 16 17 16 16 16 17 18 20 21 24 26 26 28 31
5 6 7 7 8 7 8 9 9 9 9 10 13 17 16 16 17 12 8 5 0 2 2 5 5 3 6 5 6 1 1 4 6 10 9 11 9 4 4 3 3 4 3 16 17 7 12 14 17 17 12 11 13 14 14 12 12 12 12 11 12 12 11 12 15 14 13 14 15 15 16 15 14 14 15 14 14 14 16 17 19 22 24 24 25 28
5 7 9 11 13 12 13 15 12 13 14 11 11 17 19 18 17 15 12 4 4 5 5 5 8 6 7 5 7 6 3 4 2 6 7 6 4 4 5 3 1 5 6 7 16 13 8 10 14 15 11 10 13 14 13 11 10 10 11 11 11 11 11 12 14 13 14 16 16 13 12 11 12 15 14 13 13 13 14 15 17 19 21 22 23 25
5 7 9 12 15 16 16 16 13 13 15 12 12 17 19 18 16 17 17 5 4 5 5 8 12 7 1 2 5 5 2 3 5 2 5 5 2 6 6 5 6 7 8 6 6 10 11 10 12 12 10 9 12 13 12 10 10 10 10 10 10 10 10 11 12 13 14 15 14 13 12 12 14 15 13 12 13 14 14 15 17 18 19 20 21 24
4 5 8 11 14 16 18 18 16 15 15 14 16 19 18 18 17 17 18 10 7 11 7 6 9 6 6 4 6 6 4 3 4 2 3 5 1 5 6 5 6 9 9 7 8 8 8 10 11 11 10 10 10 11 11 10 10 10 10 10 10 10 10 10 10 12 13 12 11 11 11 12 13 13 12 13 13 13 14 15 16 17 18 20 21 24
4 5 8 9 11 13 15 17 18 18 18 18 19 20 20 19 18 16 14 11 11 12 8 6 4 6 6 5 5 4 3 3 4 5 5 5 3 5 7 5 4 9 10 8 8 8 6 7 10 10 10 11 11 11 11 9 9 9 9 10 10 10 9 8 9 10 10 10 9 10 10 10 10 11 12 13 12 12 13 14 14 16 17 19 22 25
6 7 8 9 9 10 12 16 18 18 18 20 21 21 19 16 15 12 8 9 9 8 6 5 4 4 6 8 7 3 4 5 7 8 5 3 5 5 6 7 7 7 9 8 7 6 4 6 10 11 11 11 12 13 13 11 9 9 10 11 11 10 8 8 8 8 8 8 8 9 9 9 10 10 11 12 11 11 12 13 13 14 16 18 21 23
7 7 7 8 8 10 13 16 17 16 14 15 14 12 9 9 9 7 8 12 11 8 5 4 4 3 3 7 7 6 6 7 8 9 7 4 5 7 6 4 3 6 6 4 6 6 5 7 10 11 12 12 12 13 12 11 11 11 12 12 11 10 8 8 8 8 8 9 9 8 8 9 9 10 10 10 10 10 11 12 12 13 16 17 18 18
9 8 7 7 7 10 14 15 15 13 10 9 10 7 7 9 4 9 10 10 11 8 5 5 4 4 5 5 5 7 6 6 7 10 10 7 2 5 6 5 2 5 2 3 6 8 7 7 8 11 12 12 12 12 11 11 10 10 11 11 11 10 9 8 8 9 9 9 9 8 8 8 8 9 9 9 9 8 9 11 11 12 14 16 16 15
9 8 7 6 7 8 10 11 11 10 8 10 9 6 7 7 4 14 14 11 10 9 8 8 8 10 8 6 4 6 4 4 8 10 11 9 6 2 2 4 2 4 8 6 7 10 8 7 9 12 12 12 11 12 11 11 10 10 10 10 10 10 9 9 9 9 10 9 8 8 8 7 8 8 7 8 8 8 8 10 11 12 13 14 14 13
9 8 6 6 7 7 7 8 8 8 10 10 9 11 10 8 6 6 8 12 12 10 9 9 8 10 12 8 5 4 5 3 6 10 13 12 10 7 4 4 1 7 9 7 10 11 8 8 10 11 11 11 12 11 11 10 9 9 10 10 10 10 9 9 9 10 10 9 8 7 7 7 7 7 7 7 7 7 8 9 10 12 12 11 11 11
9 7 6 6 6 6 7 8 8 10 10 7 10 10 7 8 9 4 1 8 12 11 10 8 7 8 10 11 11 8 7 9 4 8 14 16 14 10 8 7 3 5 8 7 9 9 6 6 8 9 10 11 11 10 9 9 8 8 8 9 10 10 11 11 11 10 10 9 8 7 7 7 8 7 7 7 8 7 8 9 10 11 10 9 9 10
8 7 6 6 5 6 7 8 8 9 5 5 8 8 5 5 8 7 3 2 7 11 12 9 7 9 11 13 16 13 5 9 5 5 13 16 15 13 12 10 8 5 3 4 6 6 5 5 7 9 9 10 10 8 8 8 7 8 8 8 9 11 12 13 13 11 11 10 9 8 8 8 7 8 7 7 7 7 7 9 9 9 8 8 7 8
8 6 6 6 6 7 7 7 8 5 2 7 10 10 9 6 4 6 2 2 4 9 11 8 8 11 13 13 14 12 4 2 2 5 13 17 17 17 17 14 11 10 6 2 3 5 8 8 9 10 9 9 9 8 7 7 7 8 8 8 9 10 11 13 13 12 11 10 9 9 9 8 8 8 8 7 7 7 7 8 8 8 7 7 7 6
7 5 5 7 7 7 8 7 6 1 6 10 12 11 12 11 4 3 5 3 4 9 11 10 9 10 13 13 11 9 6 4 4 8 13 15 15 15 16 15 14 13 8 7 9 5 8 13 12 9 8 8 9 8 7 6 6 8 9 10 10 11 10 11 12 12 11 10 10 9 8 8 8 7 7 7 7 7 7 7 7 7 7 6 6 5
5 5 5 7 8 7 8 8 4 2 6 12 13 14 15 12 8 5 3 3 6 8 10 11 10 9 10 11 9 7 8 9 11 12 12 12 12 13 14 14 15 14 10 8 9 6 4 9 9 8 8 9 9 8 7 5 6 9 11 11 12 12 10 9 10 12 12 11 10 9 8 8 8 7 6 7 6 5 5 5 6 6 6 5 5 5
6 5 5 7 8 7 7 7 3 3 7 14 15 14 15 10 4 2 2 4 5 5 7 6 7 8 9 10 9 8 10 11 12 12 12 11 11 13 14 14 15 16 14 10 6 3 5 1 3 6 9 9 9 10 10 8 7 9 12 13 14 14 11 10 11 12 12 10 9 9 8 8 8 7 6 6 6 5 5 5 5 5 5 4 4 4
4 5 6 5 5 6 6 6 4 1 6 15 15 12 11 6 1 3 5 4 4 7 6 5 6 8 9 10 10 10 11 11 11 11 13 12 10 10 11 11 13 15 16 14 9 5 4 3 4 6 9 9 9 11 12 11 10 10 13 15 15 14 14 13 12 12 11 11 10 9 9 8 8 7 6 6 5 5 5 5 5 5 5 5 5 4
3 4 5 3 4 4 5 3 3 3 5 10 9 6 6 6 4 3 6 7 7 8 8 8 9 9 10 11 11 11 11 11 11 11 12 12 11 10 10 10 11 12 13 13 13 12 9 6 7 10 11 11 12 13 14 15 14 13 15 15 14 15 15 13 12 13 13 12 11 10 10 9 8 8 7 6 6 5 5 5 5 5 6 6 5 4
1 1 2 3 3 5 6 5 5 6 8 10 9 5 5 5 3 1 4 5 7 8 10 10 12 13 13 13 13 12 12 12 13 13 13 13 13 12 10 10 10 10 10 11 13 13 12 9 8 11 12 13 15 15 17 18 18 18 18 17 15 15 15 13 12 13 14 14 13 12 12 11 9 9 8 8 7 6 6 5 5 5 6 6 6 5
3 4 1 3 5 6 7 7 6 7 8 10 12 10 6 4 5 5 4 4 5 7 10 12 14 16 16 15 14 14 13 13 14 15 15 15 15 14 13 11 10 9 9 11 12 12 11 10 9 10 11 13 15 17 20 21 21 21 21 17 14 14 14 14 14 13 14 14 14 13 13 12 11 11 11 10 8 7 6 6 5 6 6 5 5 5
8 8 5 5 4 5 6 4 8 11 11 8 8 9 10 11 14 15 14 12 10 10 12 15 16 17 17 16 16 16 15 15 16 16 15 15 15 16 16 14 12 11 10 11 12 13 11 10 10 10 11 12 14 18 22 24 24 21 18 15 13 12 12 12 14 14 14 14 13 12 13 13 13 13 13 11 10 8 8 7 6 7 7 5 5 5
7 9 7 6 5 6 6 7 13 15 12 7 7 9 10 12 16 17 17 17 16 16 16 17 18 18 18 18 18 19 19 18 17 16 15 15 15 15 15 14 14 13 11 9 10 11 12 12 12 12 11 11 12 15 19 22 21 17 15 15 15 15 14 14 15 16 14 13 13 13 13 13 12 14 15 14 12 10 9 8 8 7 7 7 6 5
9 8 6 6 6 6 4 8 14 11 9 7 10 13 13 15 18 18 17 17 18 18 18 19 18 18 19 19 19 19 19 19 17 17 17 16 16 16 15 14 14 14 11 9 8 9 12 14 14 14 14 14 15 15 17 19 15 9 12 18 18 17 18 18 16 16 16 15 14 14 15 14 12 12 14 14 13 12 12 11 10 10 9 9 8 7
9 5 4 6 7 5 3 10 12 8 7 11 15 17 17 18 19 19 19 19 18 18 19 20 19 18 18 18 18 18 20 20 19 19 19 19 19 18 17 16 15 14 12 11 9 10 12 14 14 16 17 18 18 17 17 18 13 5 9 18 19 19 20 19 17 16 16 18 18 16 16 16 13 12 13 13 13 13 13 13 13 13 12 10 9 8
3 4 5 6 8 7 11 14 13 9 9 13 17 19 19 19 19 20 20 19 19 20 21 22 22 22 21 20 19 19 21 22 22 22 22 22 21 20 19 18 17 16 14 12 11 11 12 12 13 15 18 18 19 19 18 18 15 9 8 13 17 20 23 22 20 19 19 21 21 19 17 16 14 12 13 13 13 12 11 11 12 14 14 13 11 10
Wind_Direction
219 239 233 239 245 251 261 248 252 285 341 349 298 287 283 282 284 273 142 96 72 324 299 306 312 309 312 320 170 177 182 197 221 192 183 178 182 185 196 187 166 177 171 181 200 192 196 198 193 200 195 189 187 184 188 187 193 203 202 204 204 202 200 197 192 193 204 200 199 202 200 217 221 199 203 218 215 209 203 195 195 194 190 187 188 188
203 243 241 242 249 249 262 263 284 314 326 307 287 286 282 277 279 265 137 131 142 268 296 293 297 305 305 304 269 196 186 179 167 243 259 216 176 176 196 205 184 179 160 166 187 189 199 201 193 197 195 189 186 187 189 189 194 197 199 202 202 205 205 203 200 191 197 197 195 202 204 213 222 211 198 211 222 209 199 195 192 194 190 187 189 188
191 240 242 242 259 259 260 272 314 309 295 289 283 282 280 272 269 255 136 133 147 210 282 296 310 306 290 300 327 319 81 114 124 196 269 307 151 163 196 218 191 176 158 166 188 192 199 201 191 189 191 192 193 194 192 192 197 197 199 203 203 208 207 206 207 193 186 190 196 206 208 203 212 223 200 199 219 209 193 191 187 188 187 188 191 187
214 224 225 225 242 255 257 267 294 282 273 270 263 268 271 270 272 254 128 167 187 203 277 344 310 284 269 259 24 23 46 79 104 140 221 326 340 175 236 222 188 180 167 172 187 188 191 197 196 192 189 194 198 199 197 195 199 200 202 204 203 205 204 206 208 198 185 182 191 203 204 194 201 212 195 194 211 206 194 188 184 185 183 186 188 184
258 261 276 252 239 250 258 258 267 266 263 257 250 259 271 278 281 282 222 204 193 190 198 324 288 286 278 119 106 87 90 92 93 72 45 344 316 289 300 224 200 221 193 177 181 185 189 194 201 200 192 196 201 201 203 202 201 202 203 204 203 202 199 201 203 197 190 184 189 196 195 190 192 194 192 193 198 202 200 187 184 187 183 183 184 182
261 271 287 279 259 272 281 267 264 264 268 266 252 251 254 262 278 297 325 305 243 200 193 229 292 305 88 101 77 210 139 93 83 73 24 253 249 249 232 206 204 233 219 195 192 195 198 198 202 203 198 199 200 200 204 206 204 200 201 202 201 202 198 196 198 195 194 194 197 199 193 193 194 191 191 190 191 199 196 185 190 193 185 184 184 184
249 258 261 259 258 265 264 263 269 269 270 271 271 277 266 250 269 302 309 286 278 261 194 214 281 295 93 77 25 8 97 100 119 204 261 225 212 220 235 231 209 211 220 216 204 197 199 197 195 200 203 201 198 198 198 200 203 200 202 203 200 201 197 195 197 194 197 200 202 203 194 198 202 196 195 190 191 200 190 184 196 199 191 187 185 186
237 252 265 289 275 256 252 255 246 242 257 263 275 308 298 297 296 283 277 264 279 290 209 203 240 270 296 48 38 8 115 133 179 228 222 211 216 208 225 248 234 208 213 221 210 195 194 193 191 198 207 207 201 198 195 197 201 201 203 202 201 201 196 198 199 194 199 201 203 206 193 194 202 200 204 192 187 200 193 186 192 195 195 190 188 191
186 233 235 226 242 249 253 260 248 236 244 258 294 345 321 312 296 281 287 286 287 297 273 238 253 274 306 119 169 215 216 195 196 207 203 199 225 231 218 235 236 210 209 216 209 194 193 198 203 206 209 213 208 198 195 201 202 200 202 200 201 202 198 201 202 196 200 200 204 207 190 188 193 196 213 199 185 192 195 191 189 190 197 193 190 194
224 264 263 237 235 241 243 254 261 261 247 257 313 341 307 284 283 280 281 283 289 295 296 296 288 283 263 154 175 195 236 296 195 203 245 171 153 170 238 234 227 212 208 209 207 200 200 207 218 219 210 210 212 203 199 204 202 198 201 200 200 200 199 203 204 200 201 200 204 205 192 190 187 183 201 205 193 190 189 194 194 191 198 201 197 194
269 282 301 280 261 256 247 243 246 258 270 280 307 306 279 263 257 261 268 279 291 285 292 300 288 279 261 159 263 141 139 38 68 92 18 106 127 120 117 230 225 205 199 205 213 211 208 209 218 227 216 205 205 206 205 205 202 200 202 201 200 198 199 204 205 203 202 200 204 206 198 192 184 180 192 200 199 195 189 193 197 193 198 207 204 197
246 242 240 245 255 266 265 259 249 238 274 288 287 275 281 272 243 255 282 287 285 281 289 294 291 295 309 21 351 73 92 57 81 133 90 102 114 100 80 9 348 236 193 190 203 210 209 203 206 227 229 215 203 202 205 204 200 202 204 204 203 199 199 204 207 206 203 201 203 205 203 196 187 186 193 196 201 203 196 194 196 196 200 207 206 203
223 227 227 219 217 239 256 260 253 227 227 240 249 258 274 278 266 264 264 263 265 275 283 309 344 315 319 347 352 76 84 39 51 325 126 96 83 72 59 15 354 316 196 165 176 196 200 193 190 213 231 232 222 203 201 200 197 202 205 207 208 203 201 204 208 208 205 204 203 202 203 201 196 193 193 195 202 209 206 200 199 200 204 206 205 206
216 205 210 216 198 200 228 243 232 218 205 212 225 235 252 267 272 268 260 255 258 269 281 350 22 297 302 19 13 94 96 351 36 347 74 88 78 62 45 44 350 322 347 137 183 194 197 203 198 193 202 223 228 205 193 195 198 205 208 212 213 210 207 204 207 210 207 206 205 203 204 205 206 204 199 197 202 207 208 208 206 205 207 208 207 207
284 227 194 214 197 178 200 233 249 257 239 225 235 245 255 260 262 276 286 269 270 283 269 272 330 311 32 1 288 104 105 245 96 82 91 91 85 69 30 38 4 332 347 196 258 164 192 209 194 185 183 196 203 195 196 199 203 211 214 216 215 211 211 208 205 205 205 205 205 209 210 209 212 214 210 205 206 207 206 208 209 211 214 212 210 210
289 288 183 198 198 170 189 215 238 270 281 260 265 275 271 270 254 266 279 281 289 297 271 272 340 12 62 240 240 87 44 279 58 76 104 104 98 82 38 25 8 350 334 264 174 136 195 199 178 189 189 179 174 181 199 205 206 216 219 218 214 208 207 205 202 199 200 204 210 216 216 213 216 218 216 212 213 213 210 209 208 212 219 218 215 214
281 299 180 178 177 165 201 225 206 227 269 285 260 272 314 309 291 278 277 286 293 284 287 13 19 12 352 252 276 34 333 17 28 22 105 110 113 104 84 40 352 358 347 316 73 109 290 169 163 187 183 174 164 169 193 205 211 216 217 216 212 207 201 195 197 204 205 207 214 219 216 213 216 218 217 216 218 219 216 216 212 210 218 220 219 216
314 314 310 240 200 182 213 252 229 210 228 260 261 295 352 305 283 295 298 301 299 282 316 8 328 14 10 294 338 329 294 357 9 354 88 107 118 117 106 99 331 352 338 332 30 146 345 127 165 173 162 169 158 159 173 188 208 214 212 215 211 203 197 194 201 211 214 214 217 219 215 214 217 219 219 216 218 220 220 223 221 215 216 219 220 220
332 301 302 302 274 235 197 232 255 231 235 268 289 312 329 292 277 300 287 289 298 287 353 330 302 168 147 277 17 342 330 5 5 8 36 48 66 112 122 119 100 6 334 334 15 231 229 172 193 178 159 162 152 150 155 164 193 210 211 213 211 202 197 199 203 207 214 219 221 222 218 218 221 223 224 221 221 225 226 225 223 219 219 219 217 218
327 294 291 281 272 255 181 186 243 237 226 238 265 281 275 270 280 284 265 266 291 275 209 292 300 2 17 24 49 31 16 18 7 18 37 20 14 82 121 116 106 68 344 299 280 262 235 211 218 190 167 164 154 149 149 157 176 195 205 206 203 203 198 195 196 202 213 219 222 225 222 220 222 224 227 227 226 230 230 229 227 227 227 223 215 212
277 268 287 284 282 273 198 198 238 254 244 222 228 245 244 247 247 253 264 268 285 279 247 290 270 297 347 35 65 47 18 23 7 14 43 20 350 40 117 122 127 102 90 265 259 242 215 209 225 214 193 179 163 153 152 157 163 174 191 194 191 198 200 197 195 201 213 219 224 232 230 225 224 226 229 230 229 231 232 232 232 233 232 225 218 214
288 274 282 282 281 263 250 255 249 263 277 272 265 264 267 274 260 260 272 266 271 276 267 110 152 237 311 344 48 27 315 7 56 48 14 359 317 295 115 128 137 106 145 255 254 226 203 200 198 208 209 204 188 165 159 159 158 167 180 182 186 193 196 207 206 202 211 216 222 233 236 232 229 227 230 231 233 234 233 234 235 236 235 228 223 220
347 300 291 292 287 281 287 293 278 265 266 270 279 282 285 296 286 275 277 272 280 299 333 67 103 115 277 279 341 10 345 8 48 88 82 282 277 272 159 142 144 116 168 252 251 205 189 199 194 198 210 220 209 182 174 168 164 172 175 173 184 186 177 200 212 205 207 210 215 223 229 233 232 231 232 234 237 238 238 239 239 239 238 231 227 227
344 286 289 297 291 291 291 286 285 297 297 273 270 278 278 287 288 283 294 298 301 6 35 40 62 94 234 260 272 245 49 35 22 35 239 267 287 319 86 140 143 123 154 255 246 192 188 197 198 202 206 211 203 189 192 185 173 179 176 172 182 182 175 189 201 204 207 209 212 218 223 229 231 231 233 233 237 240 241 243 241 238 238 235 232 231
331 284 295 293 283 286 281 270 283 326 343 325 299 291 279 276 278 277 288 295 294 26 18 313 249 145 209 237 306 286 124 95 26 307 333 320 314 331 355 82 95 104 150 258 229 193 194 192 198 209 208 205 203 194 199 200 190 192 188 180 181 180 179 187 191 197 206 209 211 218 226 230 228 228 228 228 232 236 238 241 241 240 241 240 236 234
301 286 296 290 288 294 291 293 311 330 331 303 288 293 296 292 288 284 284 284 273 52 338 265 208 226 221 159 11 328 20 69 350 330 351 355 0 13 109 63 52 87 244 275 245 188 187 193 196 204 208 211 208 200 206 210 206 207 204 194 189 183 179 186 192 193 199 206 208 213 221 226 228 229 228 226 231 235 237 241 243 246 249 247 242 240
289 283 279 271 272 276 269 275 290 290 279 282 292 299 302 300 298 293 286 293 314 136 230 207 172 210 246 186 137 190 102 74 344 330 353 14 25 61 108 61 3 113 199 291 293 232 194 195 196 202 212 216 207 206 216 222 220 220 215 209 208 201 188 189 197 196 196 206 211 215 218 216 221 231 231 229 232 237 243 248 252 255 257 256 253 249
272 273 272 270 265 265 267 269 275 272 268 273 286 287 287 289 292 289 286 277 166 230 251 189 170 191 245 223 148 157 164 118 23 328 335 3 48 104 109 99 138 133 147 285 304 298 253 212 202 207 217 212 204 212 225 228 226 226 224 222 225 224 210 203 207 202 199 208 214 218 217 211 221 231 232 232 235 242 251 258 262 264 264 262 258 254
278 277 284 289 282 284 284 280 279 274 271 269 260 263 271 278 281 283 286 276 169 272 283 181 177 174 249 340 92 103 60 94 126 187 291 310 85 126 140 158 167 153 149 184 256 282 278 254 224 215 217 212 207 213 221 222 222 222 224 226 228 231 225 217 216 209 209 217 217 213 212 217 228 232 231 236 244 253 261 264 265 267 268 267 264 260
332 290 283 290 287 287 286 285 286 281 278 278 273 271 273 277 278 278 286 310 9 3 12 160 172 119 82 51 71 84 38 42 116 132 306 320 67 167 208 216 186 176 175 187 206 221 248 261 244 224 214 211 209 212 215 217 220 222 223 225 226 228 227 229 231 222 216 220 216 211 213 220 229 232 234 245 256 267 273 272 274 276 274 275 275 271
317 282 288 293 286 282 281 281 280 276 276 277 274 274 274 276 280 282 295 330 358 8 38 121 136 76 68 35 35 52 18 19 54 39 355 327 314 235 230 246 231 195 180 185 206 210 220 251 248 227 210 207 204 204 209 214 222 223 221 224 228 230 234 244 245 228 215 213 212 218 226 229 235 239 246 256 265 272 275 277 284 287 284 283 283 278
294 290 299 294 282 282 281 278 276 275 278 275 271 272 275 280 287 291 324 17 15 1 34 90 97 54 17 353 352 3 11 26 47 41 16 336 327 289 233 232 238 199 165 176 206 215 214 236 242 229 213 208 200 198 204 209 214 216 215 222 230 233 239 244 237 224 219 220 222 229 236 238 242 247 255 267 275 279 282 287 292 292 292 294 293 287
286 286 289 285 282 284 283 285 289 286 277 271 271 278 293 311 325 339 16 37 33 14 24 70 95 99 43 354 339 344 13 37 53 49 47 39 346 320 295 266 208 140 131 188 215 218 217 225 235 228 215 209 202 200 205 205 207 211 212 219 228 231 232 230 226 223 225 230 236 240 242 242 244 249 258 269 278 283 288 294 294 291 294 299 301 297
274 274 276 278 278 280 284 288 290 283 273 275 282 293 302 303 359 74 69 52 44 42 56 66 49 57 80 58 359 339 4 55 62 50 55 69 34 295 297 321 68 124 153 223 204 217 233 230 229 222 215 211 203 200 205 205 207 210 211 218 225 227 227 224 223 227 231 236 241 241 243 244 244 251 259 268 277 283 286 291 291 289 295 302 307 308
266 266 269 273 269 277 288 287 277 270 272 283 295 337 344 323 61 93 90 75 62 55 52 43 22 9 18 47 33 335 333 78 75 51 44 52 59 51 320 337 328 262 278 276 234 233 236 224 223 219 211 207 200 199 205 207 207 208 211 219 224 224 229 229 226 231 235 237 239 239 244 245 244 251 260 267 277 283 285 290 291 291 296 303 309 313
258 264 267 271 272 275 276 269 266 277 289 308 355 28 23 12 38 86 96 77 60 51 46 35 14 354 346 356 20 339 286 213 104 58 35 35 48 48 29 25 307 241 250 253 241 237 226 213 220 217 209 205 201 201 210 213 212 211 212 219 224 225 231 231 228 232 238 238 237 240 244 244 246 254 259 267 278 281 284 291 295 298 300 303 307 309
241 257 265 264 267 274 276 274 279 287 295 339 26 30 23 33 32 359 58 74 53 35 35 31 11 351 340 343 356 346 276 235 186 49 26 26 37 31 14 16 342 239 215 217 236 237 222 213 217 214 213 214 208 205 213 219 222 222 219 220 222 222 226 228 227 230 238 242 241 240 243 244 250 257 260 271 280 281 284 291 297 302 304 305 307 305
236 242 255 264 264 266 273 277 279 281 294 8 20 14 3 32 59 44 355 54 49 22 16 19 4 352 352 354 354 348 286 228 221 14 11 18 31 27 16 9 346 313 242 216 232 222 202 203 216 217 217 220 218 211 214 224 231 234 233 228 223 223 224 224 223 225 232 241 243 243 245 246 249 254 258 269 280 282 286 294 299 306 310 311 314 309
256 249 245 255 266 273 274 276 277 280 30 23 359 0 353 342 81 94 322 302 39 6 353 3 10 356 353 354 353 352 346 203 217 356 1 11 25 27 21 16 1 350 351 339 288 236 210 201 208 215 215 218 221 216 216 229 237 240 244 241 234 234 231 225 222 223 227 231 236 241 245 245 248 254 257 265 276 280 285 295 301 306 311 310 314 316
252 251 240 244 251 253 255 264 276 321 51 19 353 357 360 345 324 243 266 301 343 330 334 357 15 8 354 348 352 2 11 6 345 342 349 1 18 24 22 18 7 0 7 6 350 315 216 202 201 204 205 213 223 227 228 234 240 244 250 249 243 244 242 232 224 223 224 225 229 236 241 244 248 251 253 260 269 273 279 289 299 309 316 313 311 315
272 265 260 261 261 252 251 262 266 93 39 5 355 1 356 332 290 269 262 249 290 322 354 1 354 354 349 345 353 3 359 348 342 339 340 348 4 9 14 18 10 5 13 6 353 10 150 190 205 213 219 220 222 231 240 244 248 251 252 249 247 250 252 242 228 222 221 222 228 235 236 238 244 245 249 259 265 266 269 276 292 310 322 319 312 316
292 292 285 276 279 275 266 274 267 118 35 360 355 7 0 332 283 330 330 237 265 342 28 15 348 350 347 341 344 346 345 345 346 344 341 344 356 360 3 11 8 3 8 5 352 49 89 146 235 239 240 236 229 234 243 249 252 254 253 249 249 250 249 243 233 225 221 221 225 231 231 233 239 241 247 259 263 258 258 266 277 293 300 297 292 291
321 307 286 281 307 306 286 290 291 242 14 358 355 12 19 12 65 17 340 320 347 10 20 6 355 357 346 337 338 337 336 341 346 346 340 337 346 351 350 1 5 1 4 5 2 11 12 321 279 255 246 246 243 240 243 250 252 251 252 251 251 248 243 241 237 227 219 220 223 224 225 230 235 237 240 250 258 256 254 254 254 264 276 281 275 256
319 306 293 312 12 341 300 313 331 293 328 352 355 16 43 58 74 21 348 353 2 5 5 349 337 339 334 327 327 324 320 324 332 338 337 333 336 340 342 355 3 358 356 357 357 358 355 328 285 261 247 250 257 249 242 246 248 246 250 254 251 245 241 241 237 225 217 218 221 222 224 227 232 238 241 243 249 256 257 249 243 253 267 274 275 261
309 29 348 328 336 328 309 313 330 322 329 341 345 8 79 102 110 45 1 1 353 349 349 337 327 327 323 317 316 312 307 313 318 320 324 324 324 329 339 353 357 352 348 347 347 350 354 346 308 272 254 256 263 255 244 246 247 245 248 252 248 244 244 242 234 225 219 220 220 220 222 224 229 240 245 243 242 247 257 259 251 251 261 268 273 276
65 75 33 302 316 332 318 301 308 323 337 348 353 359 358 328 322 339 346 340 333 333 332 326 321 318 314 311 309 305 302 310 313 310 311 311 309 311 318 331 341 341 340 341 339 336 339 342 328 300 277 269 265 255 249 250 249 244 245 246 242 241 245 244 238 231 225 226 226 224 225 228 231 236 241 244 244 243 249 257 258 257 261 260 256 261
63 39 338 294 313 327 307 313 343 339 337 346 340 318 309 324 347 357 352 343 341 337 329 321 315 313 312 310 307 305 305 307 307 306 307 306 303 300 300 306 317 322 324 331 333 329 325 329 331 321 304 285 266 254 252 253 249 243 244 250 251 253 256 254 248 241 231 228 228 228 231 235 233 231 233 238 241 244 248 250 252 261 268 262 249 244
41 19 327 293 302 300 297 352 360 340 323 332 342 325 323 343 354 350 343 339 335 327 321 317 314 312 310 307 305 304 303 300 297 299 301 302 302 301 298 299 305 308 306 310 316 316 313 314 315 311 307 301 285 272 267 267 263 257 255 256 253 253 261 265 260 253 245 237 230 227 233 240 235 227 227 230 232 237 245 245 242 248 260 264 261 257
310 327 324 312 297 270 281 360 1 336 299 316 353 355 348 343 338 331 327 325 321 315 312 310 309 306 303 302 302 301 299 298 299 299 298 298 300 300 297 299 304 305 300 298 301 300 297 298 299 298 300 301 297 292 288 289 292 280 257 254 248 241 250 258 255 248 244 241 235 229 233 242 242 229 222 221 220 223 228 233 233 233 240 247 250 251
289 314 346 313 281 260 335 360 2 352 313 320 335 340 336 331 326 320 316 313 310 308 306 303 301 299 298 299 301 302 302 302 302 301 299 297 296 295 294 296 300 299 294 293 293 288 285 288 293 297 299 298 293 291 294 302 311 298 246 252 248 240 242 245 242 241 241 238 234 229 231 238 242 233 221 213 211 217 225 229 231 232 236 242 245 247
336 20 1 313 296 314 334 337 340 339 321 316 320 322 321 321 320 316 312 310 308 308 309 307 305 303 302 301 299 299 300 300 299 299 297 295 294 295 294 293 292 292 291 291 289 283 282 286 290 291 294 296 293 287 288 296 303 298 263 250 244 239 236 232 231 238 242 235 228 225 225 227 228 228 225 215 208 215 228 233 232 233 238 244 247 248
Height
1499 1505 1507 1507 1502 1496 1489 1484 1484 1481 1483 1490 1494 1495 1494 1494 1491 1482 1480 1479 1478 1490 1493 1487 1488 1486 1481 1478 1476 1478 1480 1481 1483 1486 1488 1489 1490 1492 1495 1498 1500 1503 1505 1508 1510 1512 1512 1512 1513 1514 1515 1516 1517 1518 1519 1520 1521 1522 1523 1524 1525 1526 1528 1529 1530 1531 1531 1532 1533 1534 1535 1536 1535 1535 1535 1535 1536 1537 1537 1538 1539 1540 1543 1545 1547 1549
1499 1508 1505 1497 1491 1487 1484 1478 1478 1482 1486 1491 1494 1496 1493 1493 1490 1478 1478 1479 1477 1488 1492 1485 1487 1487 1481 1477 1472 1472 1476 1478 1480 1484 1486 1487 1488 1490 1493 1496 1498 1501 1504 1506 1509 1510 1509 1510 1511 1511 1513 1514 1515 1516 1517 1518 1519 1520 1521 1523 1524 1525 1526 1527 1528 1529 1530 1531 1533 1534 1535 1536 1536 1535 1535 1535 1535 1536 1537 1538 1539 1540 1542 1544 1546 1548
1502 1506 1497 1488 1483 1482 1482 1477 1480 1487 1490 1493 1494 1497 1497 1492 1485 1477 1475 1476 1476 1487 1490 1484 1489 1488 1480 1475 1473 1471 1472 1476 1480 1483 1485 1486 1489 1491 1492 1494 1497 1500 1503 1504 1506 1506 1507 1508 1509 1510 1510 1511 1512 1513 1515 1516 1517 1518 1520 1521 1523 1523 1525 1526 1527 1528 1529 1530 1532 1534 1535 1536 1536 1535 1535 1535 1535 1536 1537 1537 1539 1540 1542 1544 1545 1547
1505 1497 1484 1481 1481 1483 1485 1481 1484 1490 1492 1494 1495 1498 1498 1487 1484 1487 1484 1478 1477 1482 1485 1486 1490 1486 1477 1476 1477 1475 1475 1477 1481 1483 1485 1486 1488 1490 1491 1492 1496 1499 1501 1501 1502 1503 1504 1506 1507 1507 1508 1508 1509 1510 1511 1512 1514 1516 1518 1519 1521 1522 1523 1524 1525 1527 1528 1529 1531 1533 1535 1536 1536 1536 1536 1536 1536 1536 1537 1538 1539 1540 1542 1544 1545 1546
1497 1484 1475 1478 1480 1482 1486 1485 1487 1494 1495 1492 1490 1493 1494 1485 1482 1485 1482 1477 1477 1481 1481 1486 1496 1488 1478 1483 1483 1477 1478 1481 1483 1485 1486 1486 1486 1488 1488 1490 1496 1498 1498 1499 1499 1500 1502 1503 1503 1504 1505 1505 1506 1506 1507 1509 1511 1513 1515 1517 1518 1520 1521 1522 1524 1526 1526 1528 1530 1532 1534 1535 1535 1536 1536 1536 1536 1536 1537 1538 1539 1540 1542 1543 1545 1546
1493 1480 1477 1482 1483 1483 1487 1489 1489 1493 1496 1493 1485 1482 1483 1482 1480 1477 1477 1480 1487 1494 1485 1485 1506 1502 1482 1486 1487 1478 1479 1484 1485 1484 1485 1486 1486 1486 1486 1487 1491 1494 1495 1496 1496 1496 1499 1500 1501 1501 1502 1502 1501 1502 1504 1505 1507 1510 1512 1514 1516 1517 1519 1521 1522 1524 1525 1527 1529 1531 1532 1533 1534 1534 1535 1535 1536 1536 1537 1537 1538 1540 1541 1543 1545 1546
1486 1479 1477 1482 1486 1487 1491 1493 1488 1488 1497 1497 1482 1473 1472 1474 1478 1480 1482 1487 1495 1497 1485 1480 1503 1508 1491 1489 1488 1481 1485 1488 1485 1482 1482 1485 1485 1485 1486 1486 1486 1487 1490 1493 1493 1495 1497 1498 1499 1499 1498 1498 1499 1500 1501 1503 1504 1507 1509 1510 1513 1515 1517 1519 1520 1522 1524 1526 1528 1530 1531 1532 1533 1534 1534 1535 1536 1537 1537 1538 1539 1540 1541 1543 1545 1546
1482 1482 1482 1484 1488 1491 1494 1493 1486 1483 1495 1495 1476 1470 1473 1473 1480 1483 1482 1488 1487 1484 1481 1477 1488 1501 1500 1494 1487 1484 1489 1489 1487 1484 1482 1483 1484 1485 1486 1486 1486 1487 1488 1490 1491 1494 1496 1498 1499 1499 1497 1497 1497 1498 1499 1500 1501 1503 1505 1508 1510 1512 1514 1516 1519 1521 1523 1524 1526 1528 1530 1531 1533 1534 1535 1535 1537 1537 1538 1539 1540 1541 1542 1543 1545 1546
1477 1485 1486 1486 1492 1494 1492 1487 1478 1478 1488 1485 1470 1471 1477 1476 1480 1480 1480 1486 1480 1483 1493 1483 1479 1498 1506 1495 1485 1485 1489 1490 1488 1485 1482 1482 1483 1484 1485 1485 1487 1489 1489 1489 1490 1493 1495 1499 1503 1502 1499 1497 1496 1496 1496 1496 1498 1501 1503 1505 1507 1509 1512 1514 1516 1519 1521 1523 1525 1526 1528 1530 1532 1534 1535 1535 1537 1538 1539 1540 1541 1542 1543 1544 1545 1547
1477 1480 1479 1480 1488 1490 1486 1479 1473 1476 1481 1475 1468 1474 1477 1477 1479 1479 1483 1486 1483 1494 1504 1489 1481 1497 1508 1498 1487 1488 1491 1491 1488 1483 1480 1480 1483 1484 1484 1485 1487 1488 1488 1489 1490 1492 1493 1498 1503 1504 1501 1498 1496 1495 1495 1495 1496 1498 1500 1502 1505 1507 1509 1512 1514 1517 1518 1521 1523 1525 1527 1529 1531 1533 1535 1535 1536 1538 1539 1540 1542 1543 1544 1544 1545 1547
1477 1477 1477 1478 1482 1481 1477 1474 1470 1472 1475 1471 1474 1480 1481 1480 1479 1480 1482 1483 1494 1507 1502 1488 1482 1490 1505 1500 1486 1487 1488 1485 1485 1485 1482 1480 1481 1483 1483 1484 1486 1486 1487 1488 1489 1490 1492 1495 1501 1504 1501 1498 1497 1496 1496 1496 1496 1498 1499 1500 1503 1505 1507 1510 1512 1514 1516 1519 1521 1523 1526 1528 1530 1532 1534 1535 1536 1537 1539 1540 1542 1543 1544 1545 1545 1547
1478 1480 1479 1476 1478 1475 1475 1475 1470 1469 1472 1476 1482 1486 1490 1489 1484 1489 1492 1491 1510 1517 1497 1485 1480 1484 1502 1501 1483 1481 1480 1477 1480 1483 1482 1481 1480 1482 1482 1483 1484 1485 1485 1486 1486 1487 1489 1492 1498 1504 1503 1500 1500 1500 1499 1499 1499 1499 1499 1500 1503 1504 1506 1508 1510 1512 1514 1517 1519 1522 1525 1527 1529 1531 1532 1534 1536 1537 1538 1540 1542 1543 1544 1545 1546 1547
1480 1479 1475 1473 1474 1474 1479 1483 1480 1475 1476 1482 1486 1490 1501 1505 1503 1511 1512 1507 1515 1511 1490 1483 1485 1490 1499 1492 1479 1479 1478 1476 1477 1477 1478 1480 1480 1481 1481 1482 1483 1483 1483 1483 1485 1486 1489 1492 1495 1500 1505 1505 1506 1504 1503 1503 1503 1501 1501 1501 1503 1504 1505 1507 1508 1510 1513 1515 1518 1521 1523 1526 1528 1529 1530 1532 1534 1537 1538 1540 1542 1543 1544 1545 1546 1547
1481 1475 1470 1473 1474 1472 1478 1488 1490 1485 1480 1484 1485 1491 1503 1510 1519 1526 1518 1511 1512 1503 1487 1482 1489 1498 1496 1485 1477 1477 1476 1474 1474 1475 1478 1480 1481 1482 1481 1481 1482 1481 1482 1484 1484 1486 1488 1490 1492 1497 1502 1507 1510 1509 1508 1508 1506 1504 1503 1503 1503 1503 1504 1506 1507 1509 1512 1515 1518 1520 1522 1525 1527 1529 1529 1530 1533 1536 1538 1540 1542 1544 1544 1545 1546 1547
1490 1487 1475 1473 1473 1470 1475 1480 1482 1478 1477 1478 1473 1478 1490 1495 1510 1520 1513 1510 1507 1498 1491 1486 1492 1501 1500 1489 1476 1471 1472 1471 1472 1475 1479 1482 1483 1483 1483 1482 1482 1482 1482 1483 1483 1485 1487 1489 1492 1496 1499 1502 1506 1509 1511 1511 1509 1506 1505 1504 1503 1503 1503 1505 1507 1510 1513 1516 1518 1520 1522 1525 1527 1528 1529 1530 1533 1536 1537 1539 1541 1544 1545 1545 1546 1547
1492 1489 1467 1462 1463 1464 1473 1472 1468 1475 1481 1474 1465 1475 1484 1479 1487 1499 1499 1496 1493 1495 1496 1490 1492 1492 1488 1482 1470 1468 1471 1468 1471 1475 1478 1483 1485 1485 1485 1483 1482 1483 1483 1483 1484 1485 1488 1490 1493 1496 1497 1497 1501 1507 1510 1512 1510 1507 1506 1505 1503 1503 1503 1506 1508 1510 1513 1515 1517 1519 1521 1524 1526 1528 1529 1531 1533 1535 1536 1537 1539 1542 1544 1545 1546 1546
1494 1486 1462 1459 1462 1460 1468 1467 1463 1476 1485 1477 1475 1481 1475 1464 1471 1488 1494 1486 1487 1504 1504 1495 1500 1497 1490 1487 1474 1471 1475 1471 1472 1475 1477 1483 1485 1486 1487 1485 1485 1485 1484 1485 1486 1486 1488 1489 1491 1492 1493 1494 1498 1503 1507 1510 1510 1509 1507 1505 1504 1503 1504 1507 1510 1511 1511 1512 1513 1515 1517 1521 1523 1526 1528 1530 1532 1534 1535 1535 1536 1539 1542 1543 1545 1545
1492 1492 1469 1462 1468 1462 1461 1464 1461 1463 1470 1478 1483 1475 1465 1465 1470 1482 1498 1500 1501 1514 1508 1497 1503 1506 1511 1508 1485 1477 1481 1477 1475 1475 1475 1480 1483 1486 1488 1487 1488 1488 1487 1488 1488 1488 1487 1487 1488 1489 1490 1491 1494 1499 1504 1507 1509 1508 1506 1504 1503 1503 1505 1508 1509 1510 1510 1510 1511 1513 1515 1518 1520 1523 1526 1528 1530 1531 1532 1534 1535 1537 1539 1541 1543 1543
1485 1499 1482 1465 1470 1464 1456 1466 1472 1463 1460 1470 1473 1464 1469 1488 1490 1488 1502 1511 1514 1521 1517 1506 1501 1502 1510 1508 1492 1487 1486 1481 1481 1479 1478 1480 1481 1484 1486 1487 1489 1489 1489 1490 1490 1489 1488 1487 1487 1487 1489 1491 1492 1495 1500 1504 1505 1504 1504 1503 1502 1503 1505 1507 1508 1509 1510 1509 1510 1512 1514 1516 1518 1520 1523 1525 1527 1528 1529 1532 1534 1535 1536 1538 1540 1541
1483 1500 1496 1472 1464 1461 1459 1471 1483 1477 1465 1465 1468 1467 1471 1484 1490 1490 1493 1497 1506 1518 1521 1520 1515 1508 1502 1495 1492 1493 1486 1483 1486 1484 1481 1481 1481 1484 1485 1487 1489 1490 1490 1490 1490 1490 1489 1488 1487 1486 1490 1491 1491 1492 1495 1500 1503 1502 1503 1503 1502 1503 1504 1505 1506 1506 1507 1507 1508 1510 1512 1514 1516 1518 1520 1522 1524 1525 1526 1529 1530 1531 1533 1534 1535 1538
1483 1496 1501 1482 1466 1468 1473 1475 1477 1477 1472 1471 1476 1478 1477 1475 1477 1483 1484 1481 1491 1506 1514 1526 1535 1522 1499 1487 1489 1490 1485 1484 1485 1483 1481 1480 1480 1483 1485 1486 1488 1490 1492 1491 1490 1491 1490 1489 1487 1486 1488 1489 1489 1491 1493 1496 1499 1500 1502 1503 1502 1502 1502 1503 1504 1505 1505 1506 1506 1507 1509 1512 1514 1516 1518 1520 1521 1522 1524 1526 1527 1528 1529 1530 1531 1534
1486 1492 1498 1491 1481 1481 1478 1466 1462 1466 1467 1470 1474 1475 1476 1475 1477 1490 1494 1482 1480 1491 1499 1517 1536 1523 1496 1485 1485 1485 1483 1483 1482 1482 1482 1480 1480 1482 1483 1485 1487 1490 1495 1494 1491 1492 1491 1489 1487 1486 1486 1486 1486 1489 1491 1493 1496 1496 1499 1500 1501 1502 1502 1502 1503 1504 1504 1504 1505 1506 1507 1510 1512 1514 1516 1518 1519 1520 1522 1523 1524 1526 1527 1527 1529 1531
1486 1490 1496 1496 1488 1481 1472 1460 1457 1459 1458 1462 1467 1467 1469 1472 1476 1491 1500 1488 1481 1486 1487 1501 1520 1513 1490 1481 1481 1481 1481 1481 1483 1484 1482 1481 1482 1481 1482 1484 1486 1490 1496 1496 1492 1491 1490 1489 1488 1486 1485 1485 1484 1486 1488 1490 1493 1494 1496 1498 1500 1501 1503 1503 1502 1503 1504 1504 1505 1506 1507 1508 1510 1511 1514 1516 1517 1518 1519 1520 1523 1524 1525 1525 1526 1528
1488 1493 1500 1501 1490 1478 1469 1460 1456 1456 1459 1466 1468 1464 1467 1472 1472 1476 1481 1479 1485 1493 1494 1505 1521 1511 1489 1479 1478 1478 1479 1482 1485 1484 1482 1482 1481 1482 1483 1484 1486 1489 1494 1497 1493 1490 1489 1489 1488 1486 1485 1484 1484 1484 1486 1487 1490 1492 1494 1497 1499 1500 1502 1503 1502 1502 1503 1504 1505 1506 1507 1507 1508 1510 1512 1514 1515 1516 1516 1518 1520 1521 1522 1522 1523 1524
1497 1499 1503 1509 1507 1499 1492 1484 1476 1472 1472 1477 1475 1468 1466 1468 1467 1470 1472 1474 1488 1497 1496 1508 1521 1510 1489 1480 1479 1478 1478 1482 1485 1482 1481 1481 1480 1482 1483 1484 1487 1489 1493 1497 1494 1489 1489 1488 1487 1486 1485 1484 1484 1484 1485 1486 1488 1490 1493 1496 1498 1499 1500 1501 1501 1501 1502 1503 1504 1505 1506 1507 1508 1509 1511 1512 1513 1513 1514 1515 1516 1517 1518 1519 1519 1520
1499 1500 1501 1511 1519 1520 1521 1514 1501 1490 1485 1482 1478 1471 1468 1469 1469 1473 1476 1482 1495 1499 1495 1502 1510 1500 1486 1481 1482 1482 1480 1482 1483 1481 1481 1480 1480 1482 1483 1485 1487 1487 1493 1498 1495 1489 1488 1487 1486 1485 1485 1485 1484 1484 1485 1486 1487 1489 1491 1494 1496 1498 1499 1500 1500 1501 1502 1503 1504 1505 1505 1506 1507 1508 1509 1510 1511 1512 1512 1513 1513 1513 1514 1515 1516 1516
1497 1498 1497 1504 1509 1510 1512 1505 1491 1488 1490 1487 1482 1476 1474 1472 1469 1471 1478 1486 1493 1496 1496 1496 1495 1493 1488 1482 1483 1484 1482 1483 1482 1480 1482 1482 1481 1482 1482 1483 1483 1483 1490 1498 1497 1492 1488 1487 1486 1485 1485 1485 1484 1485 1485 1486 1487 1488 1490 1492 1493 1495 1497 1498 1499 1500 1502 1502 1503 1503 1504 1504 1505 1506 1507 1508 1509 1509 1509 1510 1510 1510 1510 1511 1512 1512
1498 1500 1496 1495 1496 1492 1490 1486 1481 1483 1486 1485 1487 1486 1480 1474 1471 1474 1479 1483 1486 1493 1497 1490 1484 1490 1489 1481 1481 1483 1480 1481 1482 1481 1483 1483 1481 1481 1481 1481 1481 1481 1486 1493 1497 1496 1492 1489 1487 1486 1485 1485 1484 1485 1485 1485 1486 1487 1488 1490 1491 1493 1494 1496 1497 1499 1500 1501 1501 1502 1502 1503 1504 1504 1505 1506 1506 1507 1506 1506 1507 1506 1506 1507 1507 1507
1495 1501 1495 1493 1493 1486 1482 1480 1479 1482 1482 1479 1481 1484 1479 1474 1474 1476 1474 1473 1481 1490 1491 1483 1480 1485 1485 1479 1480 1480 1478 1481 1481 1481 1483 1482 1480 1480 1480 1480 1480 1480 1482 1486 1491 1495 1496 1493 1489 1486 1486 1485 1484 1485 1484 1485 1486 1486 1487 1489 1489 1491 1492 1494 1495 1496 1497 1498 1499 1500 1501 1502 1502 1502 1503 1503 1503 1503 1503 1503 1503 1503 1503 1502 1502 1502
1494 1501 1495 1494 1495 1490 1484 1480 1477 1480 1481 1478 1477 1475 1473 1471 1471 1471 1469 1469 1476 1483 1483 1481 1482 1483 1481 1479 1478 1477 1478 1480 1480 1481 1482 1481 1480 1480 1480 1480 1480 1481 1482 1483 1486 1490 1493 1494 1491 1488 1486 1485 1485 1484 1484 1485 1485 1485 1486 1487 1488 1489 1490 1492 1493 1494 1495 1496 1496 1498 1498 1499 1500 1500 1500 1500 1500 1500 1500 1500 1500 1499 1499 1498 1497 1496
1497 1500 1493 1493 1498 1494 1487 1482 1479 1479 1479 1479 1478 1473 1470 1470 1469 1470 1471 1472 1477 1483 1483 1485 1489 1486 1479 1476 1475 1476 1478 1478 1479 1481 1480 1480 1481 1480 1480 1480 1480 1481 1482 1482 1485 1487 1487 1490 1492 1489 1487 1486 1485 1484 1484 1484 1484 1485 1486 1486 1487 1488 1489 1490 1491 1492 1493 1494 1494 1495 1496 1497 1497 1498 1498 1498 1497 1497 1496 1496 1496 1495 1495 1494 1493 1491
1497 1500 1494 1495 1503 1498 1488 1484 1481 1476 1477 1480 1478 1473 1471 1472 1472 1473 1476 1478 1481 1485 1488 1491 1497 1494 1484 1479 1479 1479 1477 1478 1479 1480 1480 1481 1482 1481 1481 1481 1480 1481 1481 1483 1486 1486 1486 1488 1490 1489 1488 1487 1486 1485 1484 1484 1484 1485 1485 1486 1486 1487 1488 1489 1489 1490 1491 1492 1493 1494 1494 1495 1495 1495 1495 1495 1495 1494 1493 1493 1493 1492 1491 1490 1488 1486
1498 1501 1500 1501 1506 1500 1489 1486 1481 1479 1486 1488 1477 1470 1471 1472 1474 1477 1481 1483 1482 1484 1490 1497 1499 1494 1486 1484 1485 1482 1480 1480 1481 1480 1481 1482 1482 1481 1482 1482 1481 1481 1482 1484 1485 1484 1485 1486 1487 1488 1488 1487 1486 1485 1485 1484 1484 1484 1484 1485 1486 1486 1487 1487 1488 1489 1490 1490 1491 1492 1492 1493 1493 1493 1493 1493 1493 1492 1491 1491 1490 1489 1488 1486 1484 1482
1498 1501 1501 1501 1505 1502 1492 1485 1485 1493 1501 1490 1468 1461 1465 1468 1474 1483 1488 1487 1484 1483 1487 1492 1492 1488 1485 1486 1487 1485 1483 1483 1482 1482 1482 1483 1482 1481 1481 1482 1483 1482 1482 1483 1483 1483 1484 1484 1485 1487 1488 1487 1486 1485 1484 1484 1484 1484 1484 1484 1485 1485 1486 1486 1487 1488 1488 1489 1490 1490 1491 1491 1491 1491 1492 1491 1491 1491 1490 1490 1489 1487 1486 1484 1482 1480
1498 1500 1500 1499 1501 1500 1492 1491 1503 1508 1496 1474 1459 1458 1462 1464 1470 1481 1486 1486 1485 1485 1487 1489 1491 1489 1487 1486 1486 1485 1484 1484 1484 1484 1484 1484 1484 1482 1481 1481 1482 1481 1481 1481 1482 1483 1484 1484 1485 1487 1487 1487 1487 1485 1485 1484 1483 1483 1483 1483 1484 1485 1485 1486 1486 1487 1487 1488 1488 1489 1489 1489 1490 1490 1490 1490 1489 1489 1488 1488 1486 1485 1483 1481 1479 1478
1496 1498 1499 1498 1498 1499 1497 1500 1509 1501 1476 1464 1466 1468 1468 1471 1475 1482 1489 1489 1488 1489 1491 1494 1495 1494 1492 1490 1488 1485 1484 1484 1485 1486 1486 1486 1485 1485 1483 1482 1481 1480 1480 1481 1482 1483 1484 1485 1486 1488 1488 1488 1486 1485 1485 1484 1483 1483 1483 1483 1484 1484 1485 1485 1486 1486 1486 1486 1487 1487 1488 1488 1488 1488 1488 1488 1488 1487 1487 1486 1484 1483 1482 1480 1478 1477
1490 1495 1498 1499 1499 1500 1501 1499 1495 1486 1478 1480 1483 1478 1477 1482 1484 1486 1492 1494 1491 1490 1493 1496 1497 1497 1496 1492 1488 1486 1485 1484 1486 1487 1487 1487 1487 1487 1486 1483 1482 1482 1482 1482 1484 1484 1485 1487 1488 1488 1489 1488 1486 1485 1484 1484 1484 1484 1483 1484 1484 1484 1484 1484 1484 1485 1485 1485 1485 1486 1486 1486 1486 1486 1486 1486 1486 1485 1485 1484 1483 1482 1480 1479 1478 1476
1484 1489 1495 1500 1499 1496 1499 1502 1497 1495 1498 1498 1491 1483 1480 1482 1483 1486 1493 1497 1494 1493 1494 1495 1497 1497 1495 1492 1489 1486 1486 1489 1493 1491 1489 1490 1490 1489 1487 1485 1484 1483 1483 1484 1484 1483 1486 1489 1489 1488 1489 1488 1487 1485 1484 1484 1484 1484 1483 1483 1483 1483 1483 1483 1483 1483 1483 1484 1484 1484 1484 1484 1484 1484 1484 1484 1484 1484 1483 1482 1481 1481 1480 1479 1478 1476
1483 1485 1488 1497 1500 1497 1501 1506 1502 1502 1506 1502 1493 1485 1482 1482 1481 1485 1496 1502 1497 1495 1496 1496 1497 1497 1495 1494 1493 1488 1489 1496 1499 1495 1491 1492 1492 1489 1487 1486 1485 1485 1485 1485 1484 1483 1484 1487 1487 1487 1486 1486 1486 1484 1483 1483 1483 1483 1483 1483 1482 1482 1482 1481 1482 1482 1482 1483 1483 1482 1483 1483 1483 1483 1483 1483 1483 1482 1482 1481 1480 1480 1479 1478 1478 1477
1488 1488 1489 1497 1500 1498 1501 1502 1497 1499 1504 1500 1492 1488 1487 1485 1482 1490 1509 1512 1500 1496 1498 1496 1497 1499 1498 1497 1497 1494 1494 1497 1497 1493 1492 1492 1493 1492 1489 1486 1486 1486 1485 1484 1485 1485 1484 1485 1485 1484 1483 1484 1484 1483 1482 1482 1482 1482 1482 1482 1482 1481 1481 1481 1481 1481 1481 1482 1482 1482 1481 1481 1481 1481 1481 1481 1481 1481 1480 1480 1479 1479 1479 1478 1478 1477
1493 1491 1492 1495 1495 1494 1497 1499 1498 1501 1503 1496 1492 1492 1490 1487 1489 1502 1516 1513 1501 1498 1499 1497 1500 1503 1501 1500 1499 1497 1497 1497 1495 1493 1493 1492 1493 1493 1491 1488 1486 1486 1484 1483 1483 1484 1485 1485 1484 1483 1482 1482 1483 1483 1481 1480 1480 1481 1481 1481 1481 1481 1480 1481 1480 1480 1480 1480 1480 1481 1480 1480 1480 1480 1479 1479 1479 1479 1479 1479 1479 1479 1478 1478 1478 1477
1500 1498 1496 1495 1494 1493 1493 1495 1501 1507 1504 1495 1493 1494 1491 1494 1503 1510 1511 1506 1502 1502 1502 1503 1505 1505 1502 1502 1500 1499 1499 1498 1496 1495 1493 1492 1492 1493 1492 1490 1488 1486 1485 1483 1481 1481 1483 1483 1484 1483 1482 1481 1481 1481 1480 1478 1478 1479 1479 1479 1479 1479 1479 1479 1479 1479 1479 1479 1479 1479 1479 1479 1479 1479 1479 1479 1478 1478 1478 1477 1478 1478 1478 1478 1478 1477
1503 1505 1503 1497 1496 1497 1495 1499 1510 1515 1505 1495 1496 1497 1497 1502 1509 1509 1505 1503 1504 1503 1504 1505 1506 1505 1504 1503 1501 1500 1499 1497 1496 1496 1494 1492 1492 1492 1492 1491 1489 1487 1486 1484 1482 1480 1480 1480 1481 1482 1481 1480 1479 1479 1479 1477 1476 1476 1477 1477 1477 1478 1478 1478 1478 1478 1478 1478 1478 1478 1478 1478 1478 1478 1478 1478 1478 1478 1477 1477 1477 1477 1477 1477 1477 1478
1502 1506 1507 1501 1501 1506 1510 1512 1514 1510 1500 1496 1499 1501 1502 1505 1507 1506 1505 1505 1504 1504 1505 1506 1505 1504 1505 1503 1501 1501 1499 1497 1496 1495 1493 1492 1492 1491 1492 1491 1489 1487 1486 1485 1484 1481 1479 1479 1479 1480 1480 1479 1478 1478 1477 1476 1474 1474 1474 1475 1476 1477 1477 1477 1477 1477 1477 1477 1477 1477 1477 1477 1476 1477 1477 1477 1477 1477 1477 1477 1477 1476 1477 1477 1477 1477
1502 1503 1507 1506 1504 1505 1507 1507 1503 1499 1497 1498 1498 1499 1502 1504 1505 1505 1505 1505 1505 1505 1506 1505 1504 1504 1503 1502 1501 1500 1498 1497 1496 1494 1493 1492 1491 1491 1491 1490 1490 1489 1487 1486 1485 1481 1480 1479 1478 1478 1479 1478 1477 1476 1475 1474 1473 1472 1473 1474 1475 1476 1476 1476 1476 1476 1476 1476 1476 1476 1476 1475 1475 1475 1475 1476 1476 1476 1476 1476 1476 1476 1476 1476 1476 1476
1500 1501 1504 1505 1503 1502 1502 1499 1497 1498 1499 1499 1499 1500 1502 1503 1502 1502 1503 1503 1504 1505 1504 1504 1504 1503 1502 1501 1499 1497 1497 1496 1495 1494 1493 1492 1491 1490 1490 1490 1490 1489 1487 1486 1484 1482 1480 1479 1477 1476 1476 1475 1475 1473 1472 1472 1472 1471 1471 1473 1475 1477 1477 1477 1476 1475 1475 1475 1475 1475 1475 1474 1474 1475 1474 1475 1475 1475 1475 1475 1475 1475 1475 1475 1475 1476
1500 1503 1504 1503 1504 1507 1505 1500 1498 1499 1500 1500 1502 1503 1502 1502 1503 1502 1502 1502 1502 1503 1503 1503 1503 1501 1500 1499 1497 1496 1495 1494 1493 1493 1492 1491 1490 1489 1489 1488 1488 1488 1487 1485 1483 1481 1480 1479 1477 1475 1474 1473 1472 1470 1469 1469 1468 1469 1472 1475 1477 1479 1480 1480 1479 1477 1476 1475 1475 1474 1474 1473 1473 1473 1473 1474 1474 1474 1474 1474 1474 1475 1474 1474 1475 1475
1503 1506 1505 1503 1504 1506 1505 1502 1501 1503 1501 1501 1502 1503 1502 1503 1504 1503 1503 1503 1503 1502 1502 1502 1501 1500 1499 1498 1496 1495 1493 1492 1492 1491 1490 1489 1489 1487 1486 1487 1486 1485 1485 1484 1482 1481 1479 1478 1477 1475 1473 1472 1470 1468 1468 1466 1467 1472 1476 1477 1477 1478 1478 1479 1479 1479 1478 1477 1476 1474 1473 1472 1471 1471 1471 1472 1472 1472 1473 1473 1473 1474 1473 1473 1474 1474
1504 1505 1505 1504 1504 1503 1503 1504 1504 1504 1502 1501 1503 1504 1504 1504 1504 1504 1504 1503 1502 1502 1501 1500 1500 1499 1497 1496 1495 1493 1492 1491 1490 1489 1488 1487 1487 1486 1485 1484 1484 1483 1483 1482 1481 1480 1478 1477 1476 1474 1473 1471 1468 1468 1467 1465 1467 1474 1476 1474 1474 1475 1474 1474 1475 1477 1478 1477 1475 1473 1471 1470 1469 1469 1469 1469 1470 1470 1471 1471 1472 1472 1472 1472 1473 1473
1504 1506 1506 1506 1505 1503 1505 1507 1507 1507 1506 1504 1503 1504 1505 1505 1504 1503 1502 1501 1501 1501 1500 1498 1497 1497 1495 1495 1494 1492 1491 1490 1489 1488 1487 1485 1485 1484 1483 1482 1482 1482 1481 1480 1479 1478 1477 1475 1475 1473 1472 1470 1467 1466 1466 1466 1467 1471 1472 1471 1471 1472 1472 1472 1473 1474 1476 1475 1473 1472 1470 1468 1467 1467 1466 1467 1468 1468 1468 1469 1470 1470 1471 1471 1472 1472
1507 1508 1508 1508 1507 1505 1506 1507 1508 1509 1508 1506 1505 1505 1505 1504 1503 1502 1501 1500 1500 1499 1498 1496 1495 1494 1493 1492 1492 1491 1490 1488 1487 1487 1485 1484 1483 1482 1481 1481 1480 1479 1479 1479 1478 1477 1475 1474 1473 1472 1471 1469 1466 1465 1465 1465 1465 1467 1468 1469 1469 1469 1468 1468 1469 1468 1469 1469 1469 1469 1467 1466 1465 1465 1464 1465 1465 1466 1467 1467 1468 1468 1469 1470 1470 1471